[[{"header":{"parameterUnit":"m.s-1","parameterCategory":1,"la1":30.2992,"la2":30.254,"lo1":-89.0895,"lo2":-89.0443,"dy":0.0025,"dx":0.0025,"nx":19,"ny":19,"refTime":"2026-03-16T21:00:00:Z","depth":0,"parameterNumber":2,"parameterNumberName":"U-component_of_WINDS"},"data":[0,0,0,-1.92,-1.9204,-1.9361,-1.9362,-1.9562,-1.9563,0,0,0,0,0,0,0,0,0,0,0,-1.9153,-1.9154,-1.92,-1.9204,-1.9361,-1.9362,-1.9561,-1.9563,0,0,0,0,0,0,0,0,0,0,0,-1.9152,-1.9154,-1.9156,-1.9205,-1.9361,-1.9362,-1.9561,-1.9442,0,0,0,0,0,0,0,0,0,0,-1.929,-1.9246,-1.9154,-1.9156,-1.9205,-1.9361,-1.9362,-1.9437,-1.945,-1.9489,0,-1.9525,0,-1.9547,-1.9577,-1.9577,0,0,0,-1.9204,-1.9235,-1.9278,-1.9156,-1.9207,-1.9361,-1.929,-1.9444,-1.9459,-1.9507,-1.9528,-1.9535,-1.955,-1.9578,-1.9579,-1.9805,-1.9806,0,0,-1.9196,-1.9181,-1.9268,-1.9287,-1.9263,-1.9285,-1.9295,-1.9453,-1.9475,-1.9528,-1.954,-1.9554,-1.9579,-1.9581,-1.9804,-1.9805,0,0,0,-1.917,-1.9175,-1.9214,-1.9279,-1.9308,-1.929,-1.9301,-1.9468,-1.9482,-1.9542,-1.9556,-1.958,-1.9583,-1.9803,-1.9804,-1.984,0,0,0,-1.9165,-1.916,-1.921,-1.9203,-1.9305,-1.939,-1.9313,-1.9471,-1.9489,-1.9555,-1.958,-1.9585,-1.9801,-1.9803,-1.9837,-1.9859,0,0,0,-1.9143,-1.9158,-1.918,-1.9202,-1.9269,-1.9388,-1.9411,-1.9475,-1.9498,-1.9577,-1.9585,-1.9801,-1.9803,-1.9834,-1.9855,-1.9913,0,0,0,-1.9115,-1.9211,-1.9181,-1.9293,-1.9268,-1.9409,-1.941,-1.9516,-1.9589,-1.9581,-1.9802,-1.9804,-1.9833,-1.9852,-1.991,-1.996,-1.9979,0,0,-1.9228,-1.9224,-1.9292,-1.9269,-1.9412,-1.9386,-1.9534,-1.9615,-1.9636,-1.9747,-1.9753,-1.9838,-1.9854,-1.9913,-2.0095,-2.0111,0,0,0,-1.9322,-1.937,-1.9412,-1.948,-1.9543,-1.9598,-1.9658,-1.9687,-1.9782,-1.969,-1.9876,-1.9886,-1.9921,-1.9945,-1.9959,-1.9989,-1.9815,-1.9815,-1.9814,-1.9462,-1.9483,-1.9595,-1.9634,-1.97,-1.9759,-1.9814,-1.9864,-1.9867,-1.991,-1.9943,-2.0051,-2.0079,-2.0089,-2.012,-1.9972,-1.9972,-1.9972,-1.9972,-1.9628,-1.9699,-1.9699,-1.9808,-1.9829,-1.992,-1.998,-1.9979,-2.0066,-2.0029,-2.0061,-2.0017,-2.0105,-2.0134,-1.9975,-1.9974,-1.9974,-1.9974,-1.9974,-1.9721,-1.9759,-1.9792,-1.9891,-1.9965,-2.0001,-2.0085,-2.0102,-2.0118,-2.0149,-2.0185,-2.0184,-2.0185,-2.0165,-2.0166,-2.0166,-2.0166,-2.0167,-2.0167,-1.9804,-1.9841,-1.9909,-1.9983,-2.0027,-2.0088,-2.0147,-2.0192,-2.0245,-2.025,-2.0251,-2.0248,-2.0111,-2.0075,-2.0173,-2.0172,-2.0171,-2.017,-2.017,-1.9964,-1.993,-2.0036,-2.008,-2.0167,-2.0238,-2.0257,-2.0346,-2.0385,-2.0425,-2.0415,-2.0311,-2.0309,-2.0298,-2.0269,-2.0411,-2.0411,-2.0411,-2.0411,-2.0042,-2.0042,-2.0152,-2.0222,-2.0292,-2.032,-2.0437,-2.0483,-2.0525,-2.055,-2.0532,-2.0495,-2.0483,-2.0487,-2.0473,-2.0446,-2.063,-2.063,-2.063,-2.0141,-2.0148,-2.0245,-2.0285,-2.0353,-2.0411,-2.0521,-2.06,-2.0641,-2.0639,-2.057,-2.056,-2.05,-2.048,-2.0476,-2.0454,-2.0404,0,0]},{"header":{"parameterUnit":"m.s-1","parameterCategory":1,"la1":30.2992,"la2":30.254,"lo1":-89.0895,"lo2":-89.0443,"dy":0.0025,"dx":0.0025,"nx":19,"ny":19,"refTime":"2026-03-16T21:00:00:Z","depth":0,"parameterNumber":3,"parameterNumberName":"V-component_of_WINDS"},"data":[0,0,0,-2.8681,-2.8682,-2.8745,-2.8745,-2.8829,-2.883,0,0,0,0,0,0,0,0,0,0,0,-2.8666,-2.8666,-2.868,-2.8682,-2.8745,-2.8745,-2.8829,-2.883,0,0,0,0,0,0,0,0,0,0,0,-2.8665,-2.8666,-2.8667,-2.8682,-2.8745,-2.8745,-2.8829,-2.878,0,0,0,0,0,0,0,0,0,0,-2.8718,-2.8709,-2.8666,-2.8667,-2.8683,-2.8745,-2.8745,-2.8777,-2.8783,-2.8803,0,-2.8823,0,-2.8828,-2.8836,-2.8836,0,0,0,-2.8679,-2.8704,-2.8718,-2.8667,-2.8683,-2.8745,-2.8716,-2.878,-2.8787,-2.881,-2.8824,-2.8827,-2.8829,-2.8837,-2.8837,-2.8965,-2.8965,0,0,-2.8676,-2.8679,-2.8713,-2.8722,-2.8714,-2.8714,-2.8718,-2.8784,-2.8799,-2.8824,-2.8829,-2.8831,-2.8837,-2.8838,-2.8964,-2.8965,0,0,0,-2.8668,-2.8677,-2.8688,-2.8718,-2.873,-2.8716,-2.872,-2.8796,-2.88,-2.883,-2.8832,-2.8838,-2.8839,-2.8963,-2.8964,-2.9003,0,0,0,-2.8665,-2.8672,-2.8687,-2.869,-2.8728,-2.8764,-2.8731,-2.8795,-2.8802,-2.8831,-2.8838,-2.884,-2.8962,-2.8964,-2.9,-2.902,0,0,0,-2.866,-2.8671,-2.8682,-2.869,-2.8717,-2.8763,-2.877,-2.8796,-2.8804,-2.8836,-2.884,-2.8962,-2.8963,-2.8998,-2.9016,-2.9053,0,0,0,-2.8656,-2.8716,-2.8683,-2.8751,-2.8717,-2.8787,-2.877,-2.8822,-2.8855,-2.8838,-2.8962,-2.8964,-2.8997,-2.9013,-2.905,-2.9083,-2.9098,0,0,-2.8734,-2.8726,-2.8766,-2.8737,-2.8814,-2.8777,-2.886,-2.8887,-2.8887,-2.8938,-2.8941,-2.9001,-2.9016,-2.9052,-2.9183,-2.9194,0,0,0,-2.8791,-2.882,-2.8839,-2.8871,-2.8893,-2.8913,-2.8927,-2.8937,-2.898,-2.8914,-2.9025,-2.9034,-2.9055,-2.9071,-2.9081,-2.9098,-2.8972,-2.8972,-2.8972,-2.8905,-2.8902,-2.8967,-2.8971,-2.9002,-2.9015,-2.9039,-2.9054,-2.9043,-2.9069,-2.9083,-2.9163,-2.9181,-2.9189,-2.9206,-2.9102,-2.9103,-2.9103,-2.9103,-2.9018,-2.9056,-2.9039,-2.9095,-2.9091,-2.9138,-2.9153,-2.9142,-2.9184,-2.9152,-2.9171,-2.9133,-2.9202,-2.9217,-2.9106,-2.9105,-2.9105,-2.9104,-2.9104,-2.909,-2.9108,-2.9119,-2.9163,-2.9197,-2.92,-2.924,-2.9236,-2.9231,-2.925,-2.9263,-2.9262,-2.9259,-2.9257,-2.9257,-2.9258,-2.9258,-2.9258,-2.9258,-2.916,-2.9171,-2.9207,-2.9235,-2.9253,-2.9277,-2.9291,-2.9309,-2.9327,-2.932,-2.932,-2.9304,-2.921,-2.9185,-2.9262,-2.9262,-2.9261,-2.9261,-2.926,-2.9271,-2.9245,-2.9299,-2.9318,-2.935,-2.9383,-2.9377,-2.9413,-2.9427,-2.9447,-2.9428,-2.9359,-2.935,-2.9342,-2.9321,-2.943,-2.943,-2.943,-2.943,-2.933,-2.9326,-2.9379,-2.9409,-2.9438,-2.9438,-2.9497,-2.9508,-2.9515,-2.9523,-2.9507,-2.948,-2.9472,-2.9468,-2.9457,-2.9437,-2.9572,-2.9573,-2.9573,-2.9397,-2.9395,-2.9447,-2.9454,-2.9478,-2.9498,-2.9553,-2.9587,-2.959,-2.9578,-2.9529,-2.9523,-2.9478,-2.9465,-2.945,-2.9433,-2.9397,0,0]}]]